Follow iAlert.com on twitter @ialertcom
Search For Active Alerts in Your Area  
  Hi Guest:  [ Sign-up / Services ] [ Login ]

Current weather by "City, St" or "zip code"  
 

Advertise Here

Current Conditions: Fryeburg, Eastern Slopes Regional Airport, ME

Fair


71.0 F

Last Updated on Jun 18 2018, 8:54 am EDT
Humidity: 68%
Wind Speed: N 0.0 mph
Barometer 29.87 in
Dewpoint: 60.1 F
Visibility: 10.00 mi
Precip: --
Heat Index: NA
Wind Chill: NA
Current conditions at:

Fryeburg, Eastern Slopes Regional Airport, ME (KIZG)

Lat: 43.98 Lon: 70.95

Local Radar Image active severe weather and emergency alerts image image weather storm and storm spotter reports image weather observation monitoring service image
Local
Radar
Active
Alerts
Storm Reports Obs
Monitoring

iAlert Weather and Emergency Alert Notification Services:


ialert severe weather and emergency alerts by text message and email ialert daily weather forecast by email and text message service ialert real-time weather-observation monitoring and alert notification service ialert storm report monitoring alert notification

Observation History for Fryeburg, Eastern Slopes Regional Airport, ME


Time Wind
(mph)
Vis
(mi)
Weather Precip (in) Temperature (F) Relative
Humidity
Wind
Chill
(°F)
Heat
Index
(°F)
Pressure
Air Dwpt altimeter
(in)
sea level
(mb)
8:54 am EDT N 0.0 10.00 Fair -- 71.0 60.1 68% NA NA 29.87 1011.2
7:54 am EDT N 0.0 10.00 Fair -- 63.0 59.0 87% NA NA 29.89 1012.0
6:54 am EDT N 0.0 10.00 Fair -- 60.0 57.9 93% NA NA 29.91 1012.5
5:54 am EDT N 0.0 10.00 Fair -- 58.0 57.0 97% NA NA 29.92 1013.0
4:54 am EDT N 0.0 10.00 A Few Clouds -- 57.0 55.9 96% NA NA 29.95 1013.9
3:54 am EDT N 0.0 10.00 A Few Clouds -- 57.0 55.9 96% NA NA 29.96 1014.3
2:54 am EDT N 0.0 10.00 Fair -- 56.0 55.0 97% NA NA 29.98 1015.0
1:54 am EDT N 0.0 10.00 Fair -- 55.0 55.0 100% NA NA 30.00 1015.7
12:54 am EDT N 0.0 10.00 Fair -- 54.0 54.0 100% NA NA 30.02 1016.5
11:54 pm EDT N 0.0 10.00 Fair -- 56.0 55.9 100% NA NA 30.03 1016.9
10:54 pm EDT N 0.0 10.00 Fair -- 58.0 55.9 93% NA NA 30.04 1017.2
9:54 pm EDT SE 4.6 10.00 Fair -- 63.0 55.9 78% 64 NA 30.06 1017.7
8:54 pm EDT NE 4.6 10.00 Fair -- 64.0 55.9 75% NA NA 30.05 1017.6
7:54 pm EDT SE 4.6 10.00 Fair -- 69.0 57.0 66% NA NA 30.04 1017.2
6:54 pm EDT SE 6.9 10.00 Fair -- 75.0 57.0 54% NA NA 30.05 1017.4
5:54 pm EDT S 9.2 10.00 Fair -- 80.0 57.9 47% NA 81 30.04 1017.3
4:54 pm EDT SE 15.0 G 18.4 10.00 Fair -- 82.0 57.0 43% NA 82 30.05 1017.4
3:54 pm EDT SE 12.7 G 24.2 10.00 Fair -- 85.0 57.0 39% NA 84 30.04 1017.0
2:54 pm EDT E 8.1 G 16.1 10.00 Fair -- 87.0 50.0 28% NA 84 30.04 1017.0
1:54 pm EDT E 9.2 G 17.3 10.00 Fair -- 87.0 51.1 29% NA 85 30.05 1017.5
12:54 pm EDT E 6.9 10.00 Fair -- 87.0 51.1 29% NA 85 30.06 1017.9
11:54 am EDT 6.9 10.00 Fair -- 83.0 51.1 33% NA 82 30.06 1017.6
10:54 am EDT N 0.0 10.00 Fair -- 81.0 53.1 38% NA 80 30.09 1018.8
9:54 am EDT 3.5 10.00 Fair -- 77.0 57.9 52% NA NA 30.10 1019.3

Regional Weather Observation


Whitefield - Mount Washington Regional Airport, NH (KHIE)

Fair with Haze
78.0 F

Berlin, Berlin Municipal Airport, NH (KBML)

Fair
73.0 F

Fryeburg, Eastern Slopes Regional Airport, ME (KIZG)

Fair
71.0 F

Auburn-Lewiston, ME (KLEW)

Fair
62.0 F

Plymouth Municipal Airport, NH (K1P1)

Fair
70.0 F

Laconia, Laconia Municipal Airport, NH (KLCI)

Fair
75.0 F

Advertise Here